Regional Weather Roundup
Issued by NWS

Home | Current Version | Previous Version | Graphics & Text | Print | Product List | Glossary On
Versions: 1 2 3 4 5 6 7 8 9 10 11 12 13 14 15 16 17 18 19 20 21 22 23 24 25 26 27 28 29 30 31 32 33 34 35 36 37 38 39 40 41 42 43 44 45 46 47 48 49 50
000
ASUS45 KBOU 280907
RWRCO

WEATHER ROUNDUP FOR COLORADO
NATIONAL WEATHER SERVICE DENVER/BOULDER CO
200 AM MST FRI NOV 28 2014

NOTE: "FAIR" INDICATES FEW OR NO CLOUDS BELOW 12000 FEET WITH NO
SIGNIFICANT WEATHER AND/OR OBSTRUCTIONS TO VISIBILITY.

COZ001>005-013-030-031-281000-
...NORTHWEST COLORADO...

CITY           SKY/WX    TMP DP  RH WIND       PRES   REMARKS
CRAIG          PTCLDY    26  23  88 CALM      30.20F
HAYDEN         PTCLDY    27  21  80 E9        30.20F WCI  17
MEEKER         MOCLDY    34  22  61 E5        30.21F WCI  30
MOUNT WERNER   NOT AVBL
STEAMBOAT SPGS PTCLDY    25  25  98 CALM      30.22F
WALDEN         PTCLDY    32  18  55 SE9       30.21F WCI  24
$$

COZ006>008-011-281000-
...WEST CENTRAL VALLEYS...

CITY           SKY/WX    TMP DP  RH WIND       PRES   REMARKS
GRAND JUNCTION PTCLDY    27  22  81 E5        30.26S WCI  22
MONTROSE       PTCLDY    28  21  75 SE6       30.28F WCI  22
EAGLE          MOCLDY    27  25  93 CALM      30.29F
RIFLE          CLOUDY    31  27  85 CALM      30.28S
DELTA          PTCLDY    29  23  76 CALM      30.27F
NUCLA          PTCLDY    30  21  69 E5        30.32S WCI  25
$$

COZ017>023-064>068-281000-
...SOUTHWEST COLORADO...

CITY           SKY/WX    TMP DP  RH WIND       PRES   REMARKS
DURANGO        PTCLDY    22  17  81 NE5       30.33F WCI  16
CORTEZ         CLEAR     24  18  77 NE8       30.31F WCI  15
PAGOSA SPRINGS PTCLDY    25  19  77 CALM      30.36S
TELLURIDE      PTCLDY    33  14  46 SE8       30.40F WCI  26
WOLF CREEK PAS CLEAR     28   9  43 MISG      30.45F
$$

COZ009-010-012-014-032>034-037-058>063-281000-
...CENTRAL COLORADO...

CITY           SKY/WX    TMP DP  RH WIND       PRES   REMARKS
ASPEN          PTCLDY    32  20  61 S3        30.27F
BUENA VISTA    CLEAR     44   8  23 N7        30.23S
COPPER MTN     PTCLDY    34   3  27 W29G41    30.37F HAZE    WCI  20
BERTHOUD PASS  NOT AVBL
COTTONWOOD PAS CLEAR     45   0  15 W38G54    30.26S
GUNNISON       PTCLDY    16  10  79 NE3       30.40S
KREMMLING      PTCLDY    27  21  80 CALM      30.27F
LEADVILLE      PTCLDY    33   8  35 NE8       30.30F WCI  26
MONARCH PASS   CLEAR     28  10  47 W33G43    30.48S WCI  12
SALIDA         CLEAR     50   7  17 W18G24    30.29R
SUNLIGHT       MOCLDY    32  23  69 CALM      30.37S
WILKERSON PASS PTCLDY    34   3  27 W21G36    30.30S WCI  22
$$

COZ069>075-281000-
...SAN LUIS VALLEY/SANGRE DE CRISTO MOUNTAINS...

CITY           SKY/WX    TMP DP  RH WIND       PRES   REMARKS
ALAMOSA        PTCLDY    13   8  81 CALM      30.30F
LA VETA PASS   PTCLDY    32  14  47 S12G22    30.32F WCI  23
SAGUACHE       PTCLDY    23  18  80 N3        30.31S
$$

COZ035-036-038>040-281000-
...NORTHERN COLORADO FRONT RANGE...

CITY           SKY/WX    TMP DP  RH WIND       PRES   REMARKS
DENVER INTL AP PTCLDY    48  15  26 SW10      30.03S
DMNS CITY PARK   N/A     44  16  33 SE7G14    30.03S
AURORA         PTCLDY    49  13  24 S7        30.05F
FRONT RANGE AP PTCLDY    43  21  42 SW14      30.03F
ERIE MUNI ARPT MOCLDY    36  21  54 CALM      30.00S
BOULDER MUN AP MOCLDY    52  18  25 W9G16     30.00R
CENTENNIAL     PTCLDY    44  16  32 S10       30.06S
BROOMFIELD     MOCLDY    55  12  18 CALM      30.04S
FORT COLLINS   MOCLDY    57  18  21 SW14G20   30.00S
LONGMONT       MOCLDY    60  13  16 W8G20     30.00F
$$

COZ041-046-047-076>085-087-088-281000-
...PIKES PEAK/PALMER DIVIDE AND SOUTHERN FOOTHILLS...

CITY           SKY/WX    TMP DP  RH WIND       PRES   REMARKS
COLO. SPRINGS  PTCLDY    51  12  21 E3        30.13S
A. F. ACADEMY  PTCLDY    43  11  26 VRB3      30.13S
ELLICOTT       NOT AVBL
FALCON         NOT AVBL
FORT CARSON    PTCLDY    45  15  30 VRB3      30.10S
LIMON          PTCLDY    26  18  71 N7        30.07S WCI  18
MONUMENT HILL  PTCLDY    37  14  38 S9        30.12S
TRINIDAD       PTCLDY    41  22  46 W17       30.15F
$$

COZ042>045-048>051-090-091-281000-
...NORTHEAST COLORADO...

CITY           SKY/WX    TMP DP  RH WIND       PRES   REMARKS
GREELEY ARPT   MOCLDY    27  18  69 S3        30.01F
AKRON          PTCLDY    46  22  38 SW14      30.00S
BURLINGTON     CLEAR     34  20  56 W10       30.02F WCI  26
WRAY           CLEAR     34  27  74 W3        29.99R
STERLING       PTCLDY    34  30  86 S8        29.97S WCI  27
HOLYOKE        CLEAR     34  28  80 W8        29.96F WCI  27
FORT MORGAN    PTCLDY    36  24  62 W10       30.01S
$$

COZ086-089-092>099-281000-
...SOUTHEAST COLORADO...

CITY           SKY/WX    TMP DP  RH WIND       PRES   REMARKS
PUEBLO         PTCLDY    34  21  59 W10       30.09F WCI  26
LA JUNTA       PTCLDY    39  23  52 W8        30.06F
LAMAR          PTCLDY    32  22  66 W6        30.04R WCI  26
SPRINGFIELD      N/A     45  18  34 W12       30.05F
$$


USA.gov is the U.S. government's official web portal to all federal, state and local government web resources and services.